Regional Weather Roundup
Issued by NWS Raleigh/Durham, NC

Home | Current Version | Previous Version | Text Only | Print | Product List | Glossary On
Versions: 1 2 3 4 5 6 7 8 9 10 11 12 13 14 15 16 17 18 19 20 21 22 23 24 25 26 27 28 29 30 31 32 33 34 35 36 37 38 39 40 41 42 43 44 45 46 47 48 49 50
000
ASUS42 KRAH 312210
RWRRAH
NORTH CAROLINA WEATHER ROUNDUP
NATIONAL WEATHER SERVICE RALEIGH NC
600 PM EDT FRI JUL 31 2015

NOTE: "FAIR" INDICATES FEW OR NO CLOUDS BELOW 12,000 FEET WITH NO
SIGNIFICANT WEATHER AND/OR OBSTRUCTIONS TO VISIBILITY.

NCZ001-053-055-056-065-067-312300-
WESTERN NORTH CAROLINA

CITY           SKY/WX    TMP DP  RH WIND       PRES   REMARKS
ASHEVILLE      SUNNY     84  54  35 N8G18     30.02S
JEFFERSON      SUNNY     77  48  35 NW8       30.08S
MORGANTON      SUNNY     89  53  29 N6        30.00S
HICKORY        SUNNY     88  49  25 CALM      29.94F
RUTHERFORDTON  MOSUNNY   89  57  34 E5        29.94F
MOUNT AIRY     SUNNY     88  55  32 N5        29.97S
BOONE          SUNNY     77  51  39 W12G18    30.09S
$$

NCZ021-022-025-041-071-084-088-312300-
CENTRAL NORTH CAROLINA

CITY           SKY/WX    TMP DP  RH WIND       PRES   REMARKS
CHARLOTTE      MOSUNNY   91  51  25 N6        29.92F
GREENSBORO     MOSUNNY   87  56  34 CALM      29.93F
WINSTON-SALEM  SUNNY     86  58  38 E3        29.94F
RALEIGH-DURHAM MOSUNNY   88  64  44 VRB6      29.90S
FORT BRAGG     MOSUNNY   91  64  40 VRB2      29.86S
FAYETTEVILLE   MOSUNNY   90  66  45 NE5       29.86S
BURLINGTON     SUNNY     88  60  38 N7        29.91F
LAURINBURG     SUNNY     96  61  31 NE3       29.86F HX  96
$$

NCZ011-015-027-028-043-044-047-080-103-312300-
NORTHEASTERN NORTH CAROLINA

CITY           SKY/WX    TMP DP  RH WIND       PRES   REMARKS
ROCKY MT-WILSO SUNNY     92  63  38 NW9       29.87F
GREENVILLE     MOSUNNY   91  66  43 NE6       29.89S
WASHINGTON     SUNNY     87  73  63 E7        29.88R
ELIZABETH CITY MOSUNNY   85  67  54 E8        29.88S
MANTEO         MOSUNNY   83  64  50 NE9       29.89S
CAPE HATTERAS  MOSUNNY   84  74  71 N8        29.88R
$$

NCZ078-087-090-091-093-098-101-312300-
SOUTHEASTERN NORTH CAROLINA

CITY           SKY/WX    TMP DP  RH WIND       PRES   REMARKS
LUMBERTON      MOSUNNY   95  67  39 NE3       29.85F HX  99
GOLDSBORO      MOSUNNY   91  67  45 N5        29.85F
KINSTON        SUNNY     91  68  46 CALM      29.87F HX  95
KENANSVILLE    MOSUNNY  N/A N/A N/A CALM      29.87F
NEW BERN       MOSUNNY   88  74  63 E5        29.88S HX  96
CHERRY POINT   MOSUNNY   89  75  63 E9        29.88R HX  99
BEAUFORT       PTSUNNY   83  78  85 E9        29.89R
JACKSONVILLE   MOSUNNY   87  77  72 S7        29.86S HX  99
WILMINGTON     TSTM      78  74  87 S15       29.88R
$$



USA.gov is the U.S. government's official web portal to all federal, state and local government web resources and services.